ONEWEB-0271 (48989 NORAD) Tracking and Keplerian Element Data

This shows tracking and keplerian element data for the satellite.

Feedback or suggestion? Click here.




ElementValue
Catalog48989
NameONEWEB-0271
Epoch Orbit567
Epoch Day211.25001157
Epoch Year2021
RAAN227.3576
Inclination87.4751
Eccentricity0.0008632
Argument of Perigee171.1744
Mean Anonmoly201.4337
Mean Motion15.10212031
Decay Rate-0.01402788
L11 48989U 21060Y 21211.25001157 -.01402788 00000-0 -93565-1 0 9996
L22 48989 87.4751 227.3576 0008632 171.1744 201.4337 15.10212031 5672

Live tracking and technical data element details for ONEWEB-0271 (NORAD 48989). ONEWEB-0271 can be tracked NOW for your location showing map with azimuth and elevation plus other details from your city location.

Track the satellite on the map from your city or location and see movement details for azimuth, elevation, latitude, longitude, range, height, and movement on the map or in text.







IsCatalogInMostPopularTable: catalog: 48989, numindb: 3
Update: records affected: 1



GetName: 48989 ONEWEB-0271

Hit Count: updated at: Sat, 31 Jul 2021 14:51:51 GMT